| time (UTC) | temp F | wind direction | speed MPH | gust MPH | rain 1hr in | rain 24hr in | rain mn in | humidity % | barometer mb |
| 20260502190116 | 70 | 167 | 0.0 | 0.0 | 0.00 | 0.00 | 0.00 | 20 | 1012.3 |
| 20260502183116 | 71 | 167 | 0.0 | 0.0 | 0.00 | 0.00 | 0.00 | 19 | 1012.3 |
| 20260502180135 | 74 | 145 | 0.0 | 0.0 | 0.00 | 0.00 | 0.00 | 16 | 1012.2 |
| 20260502170135 | 78 | 181 | 3.0 | 4.0 | 0.00 | 0.00 | 0.00 | 15 | 1012.2 |
| 20260502163115 | 79 | 199 | 3.0 | 5.0 | 0.00 | 0.00 | 0.00 | 15 | 1012.1 |
| 20260502150115 | 83 | 196 | 5.0 | 6.0 | 0.00 | 0.00 | 0.00 | 14 | 1013.1 |
| 20260502130115 | 83 | 209 | 5.0 | 8.0 | 0.00 | 0.00 | 0.00 | 14 | 1015.1 |
| 20260502123115 | 83 | 275 | 4.0 | 6.0 | 0.00 | 0.00 | 0.00 | 14 | 1015.1 |
| 20260502120115 | 82 | 224 | 7.0 | 11.0 | 0.00 | 0.00 | 0.00 | 14 | 1015.1 |
| 20260502113115 | 81 | 145 | 6.0 | 8.0 | 0.00 | 0.00 | 0.00 | 14 | 1016.1 |
| 20260502110115 | 79 | 214 | 5.0 | 8.0 | 0.00 | 0.00 | 0.00 | 15 | 1016.2 |
| 20260502103115 | 77 | 176 | 6.0 | 7.0 | 0.00 | 0.00 | 0.00 | 18 | 1017.2 |
| 20260502100115 | 75 | 191 | 6.0 | 13.0 | 0.00 | 0.00 | 0.00 | 18 | 1017.3 |
| 20260502090115 | 73 | 228 | 8.0 | 11.0 | 0.00 | 0.00 | 0.00 | 19 | 1017.3 |
| 20260502070115 | 62 | 153 | 3.0 | 5.0 | 0.00 | 0.00 | 0.00 | 31 | 1018.6 |
| 20260502063115 | 58 | 200 | 3.0 | 5.0 | 0.00 | 0.00 | 0.00 | 35 | 1019.7 |
| 20260502060134 | 54 | 160 | 2.0 | 4.0 | 0.00 | 0.00 | 0.00 | 38 | 1019.8 |
| 20260502053115 | 50 | 186 | 0.0 | 0.0 | 0.00 | 0.00 | 0.00 | 43 | 1019.9 |
| 20260502050134 | 48 | 186 | 0.0 | 0.0 | 0.00 | 0.00 | 0.00 | 45 | 1019.9 |
| 20260502043115 | 46 | 186 | 0.0 | 0.0 | 0.00 | 0.00 | 0.00 | 43 | 1020.0 |
| 20260502040114 | 46 | 186 | 0.0 | 0.0 | 0.00 | 0.00 | 0.00 | 40 | 1020.0 |
| 20260502033114 | 47 | 186 | 0.0 | 0.0 | 0.00 | 0.00 | 0.00 | 39 | 1019.9 |
| 20260502030115 | 48 | 185 | 0.0 | 0.0 | 0.00 | 0.00 | 0.00 | 39 | 1019.9 |
| 20260502023115 | 48 | 186 | 0.0 | 0.0 | 0.00 | 0.00 | 0.00 | 38 | 1019.9 |
| 20260502020114 | 49 | 186 | 0.0 | 0.0 | 0.00 | 0.00 | 0.00 | 38 | 1020.9 |
| 20260502013114 | 50 | 185 | 0.0 | 0.0 | 0.00 | 0.00 | 0.00 | 36 | 1020.9 |
| 20260502010114 | 51 | 185 | 0.0 | 0.0 | 0.00 | 0.00 | 0.00 | 36 | 1020.8 |
| 20260502003115 | 52 | 155 | 0.0 | 0.0 | 0.00 | 0.00 | 0.00 | 36 | 1020.8 |
| 20260502000114 | 51 | 152 | 0.0 | 0.0 | 0.00 | 0.00 | 0.00 | 34 | 1021.9 |
| 20260501233114 | 53 | 154 | 0.0 | 0.0 | 0.00 | 0.00 | 0.00 | 30 | 1021.8 |
| 20260501223115 | 55 | 144 | 0.0 | 0.0 | 0.00 | 0.00 | 0.00 | 28 | 1021.8 |
| 20260501220114 | 57 | 152 | 2.0 | 3.0 | 0.00 | 0.00 | 0.00 | 27 | 1021.7 |
| 20260501193114 | 63 | 154 | 3.0 | 7.0 | 0.00 | 0.00 | 0.00 | 23 | 1021.6 |